GEFSSE_prec_meanprecacc_330.txt.gz
Total_Precipitation_Accumulation
2.23 2.01 3.41 3.77 3.37 3.01 2.90 2.91 2.89 2.83 2.87 2.85 2.65 2.38 2.15 2.01 1.83 1.66 1.50 1.47 1.54 1.59 1.66 1.66 1.64 1.48 1.38 1.31 1.28 1.39 1.58 1.76 1.89 1.89 1.94 2.09 2.07 2.11 2.33 2.70 2.91 3.18 2.77
1.82 1.93 3.25 3.56 3.13 2.71 2.61 2.70 2.85 2.86 2.87 2.72 2.59 2.42 2.24 1.99 1.78 1.64 1.46 1.42 1.43 1.43 1.39 1.49 1.62 1.53 1.45 1.49 1.53 1.55 1.61 1.64 1.77 1.93 2.19 2.28 2.14 2.16 2.28 2.69 2.76 3.04 2.82
1.72 1.82 2.63 3.32 2.98 2.61 2.49 2.63 2.95 2.85 2.79 2.61 2.52 2.38 2.21 1.90 1.75 1.72 1.53 1.47 1.51 1.41 1.30 1.34 1.53 1.47 1.46 1.51 1.55 1.61 1.60 1.71 1.87 2.06 2.59 3.26 2.49 2.21 2.27 2.49 2.61 2.49 2.69
1.55 1.63 2.23 3.23 2.87 2.71 2.66 2.74 2.82 2.78 2.84 2.66 2.51 2.30 2.10 1.88 1.87 1.88 1.88 1.86 1.71 1.49 1.38 1.35 1.53 1.45 1.34 1.44 1.61 1.60 1.57 1.74 1.94 2.06 2.49 3.15 2.94 2.35 2.43 2.60 2.73 2.51 2.57
1.49 1.61 2.51 3.28 2.92 2.74 2.71 2.73 2.67 2.78 2.89 2.69 2.43 2.16 1.94 1.94 2.20 2.23 2.11 1.99 1.75 1.56 1.41 1.37 1.44 1.45 1.36 1.33 1.45 1.49 1.54 1.69 1.90 1.79 2.23 3.03 3.39 2.92 2.40 2.48 2.64 2.58 2.57
1.69 1.71 2.52 3.29 3.07 2.84 2.74 2.66 2.63 2.73 2.89 2.82 2.48 2.16 2.01 2.01 2.08 2.11 2.02 1.88 1.69 1.55 1.42 1.47 1.46 1.40 1.38 1.31 1.35 1.43 1.49 1.60 1.50 1.67 2.26 2.81 3.23 2.87 2.30 2.24 2.48 2.58 2.62
1.64 1.70 2.19 2.97 2.95 2.76 2.66 2.61 2.74 2.79 2.79 2.78 2.54 2.22 2.10 2.06 2.01 2.04 1.95 1.82 1.56 1.49 1.43 1.52 1.51 1.44 1.34 1.32 1.31 1.31 1.44 1.29 1.16 1.59 2.11 2.66 2.84 2.73 2.44 2.43 2.61 2.61 2.78
1.64 1.61 1.92 2.56 2.82 2.73 2.70 2.64 2.73 2.79 2.75 2.61 2.29 2.11 1.99 2.02 2.03 2.02 1.92 1.82 1.57 1.54 1.50 1.44 1.45 1.42 1.37 1.38 1.38 1.37 1.38 1.08 0.91 1.28 1.81 2.54 2.98 2.89 2.60 2.47 2.59 2.67 2.86
1.84 1.83 1.97 2.30 2.53 2.90 2.96 2.80 2.80 2.85 2.76 2.54 2.18 2.08 1.98 1.95 1.83 1.83 1.82 1.72 1.59 1.57 1.45 1.36 1.35 1.36 1.43 1.45 1.43 1.41 1.32 1.03 0.98 1.30 1.37 2.17 2.80 2.85 2.54 2.46 2.51 2.65 2.88
1.90 1.90 1.85 1.99 2.12 2.42 2.65 2.88 2.99 2.92 2.81 2.62 2.23 2.07 2.00 1.93 1.77 1.70 1.57 1.59 1.57 1.60 1.59 1.45 1.39 1.40 1.49 1.52 1.47 1.37 1.26 0.99 0.99 1.09 1.49 2.06 2.89 2.93 2.60 2.56 2.57 2.63 2.75
1.75 1.66 1.60 1.70 1.85 2.07 2.33 2.54 2.85 2.81 2.72 2.52 2.16 2.09 2.04 1.84 1.57 1.52 1.44 1.76 1.68 1.68 1.66 1.63 1.61 1.56 1.51 1.43 1.43 1.24 0.96 0.93 1.14 1.29 1.70 2.49 3.21 3.21 2.91 2.73 2.71 2.63 2.58
1.74 1.59 1.42 1.45 1.59 1.72 1.88 2.42 2.53 2.20 2.04 1.87 1.98 1.94 1.87 1.84 1.64 1.25 1.41 1.83 1.92 1.88 1.69 1.61 1.68 1.45 1.14 1.02 1.07 0.94 0.80 0.93 1.13 1.26 1.69 2.79 3.35 3.34 2.96 2.73 2.84 2.81 2.64
1.51 1.43 1.31 1.31 1.29 1.30 1.50 1.87 2.13 2.15 2.07 1.86 1.74 1.70 1.76 1.69 1.49 1.28 1.37 1.49 1.48 1.40 1.28 1.28 1.20 0.98 0.89 0.96 0.96 0.81 0.76 0.88 1.05 1.19 1.75 2.81 3.46 3.43 3.00 2.79 2.81 2.77 2.66
1.30 1.25 1.18 1.11 1.08 1.06 1.17 1.28 1.41 1.65 1.74 1.69 1.47 1.31 1.38 1.52 1.45 1.27 1.28 1.31 1.32 1.29 1.35 1.33 1.22 1.08 1.03 1.02 0.95 0.93 0.94 1.02 1.07 1.19 1.70 2.60 3.66 3.81 3.59 3.41 3.16 2.98 2.78
1.27 1.23 1.12 0.98 0.98 1.01 1.11 1.20 1.13 1.33 1.49 1.54 1.49 1.28 1.21 1.27 1.31 1.25 1.11 1.20 1.23 1.23 1.22 1.22 1.17 1.18 1.26 1.22 1.15 1.14 1.16 1.15 1.09 1.10 1.40 2.10 3.27 4.14 4.32 4.22 3.63 3.22 2.99
1.14 1.19 1.10 1.03 1.07 1.04 1.00 1.06 1.07 1.12 1.24 1.25 1.37 1.31 1.26 1.24 1.23 1.22 1.18 1.24 1.30 1.30 1.24 1.16 1.10 1.23 1.27 1.29 1.26 1.18 1.14 1.05 1.06 1.19 1.42 1.68 2.05 2.78 3.82 4.20 3.92 3.59 3.35
1.02 1.00 0.95 0.94 1.04 1.04 1.03 1.05 1.06 1.18 1.21 1.20 1.23 1.19 1.28 1.24 1.22 1.24 1.25 1.27 1.27 1.33 1.36 1.33 1.27 1.33 1.34 1.43 1.45 1.26 1.18 1.12 1.09 1.16 1.31 1.51 1.42 1.58 2.49 3.47 3.85 3.65 3.52
0.89 0.88 0.87 0.76 0.88 1.02 1.11 1.17 1.26 1.32 1.33 1.33 1.24 1.15 1.14 1.13 1.15 1.24 1.25 1.28 1.35 1.33 1.38 1.47 1.47 1.52 1.54 1.58 1.58 1.38 1.19 1.28 1.18 1.17 1.32 1.39 1.41 1.38 1.65 2.12 2.60 2.98 3.44
0.90 0.90 0.93 0.86 0.91 1.03 1.09 1.24 1.35 1.45 1.55 1.61 1.51 1.47 1.40 1.27 1.29 1.41 1.46 1.44 1.46 1.51 1.52 1.45 1.47 1.59 1.70 1.68 1.50 1.43 1.33 1.34 1.33 1.30 1.48 1.46 1.46 1.46 1.52 1.47 1.59 1.97 2.68
0.96 0.94 0.99 1.05 1.08 1.21 1.38 1.61 1.84 1.96 2.09 2.18 2.09 1.98 1.80 1.57 1.53 1.71 1.75 1.62 1.65 1.77 1.87 1.74 1.83 1.73 1.65 1.72 1.52 1.47 1.47 1.41 1.37 1.45 1.52 1.58 1.68 1.52 1.50 1.44 1.41 1.36 1.77
0.99 0.96 0.94 1.00 1.10 1.23 1.46 1.77 2.28 2.55 2.62 2.49 2.43 2.33 2.12 1.89 1.87 2.06 2.09 2.07 2.07 2.09 2.07 1.99 2.18 2.13 1.85 1.74 1.95 1.93 1.74 1.54 1.43 1.41 1.46 1.69 1.80 1.70 1.71 1.63 1.56 1.48 1.38
0.84 0.88 1.02 1.07 1.12 1.24 1.50 1.80 2.18 2.61 2.67 2.60 2.48 2.38 2.27 2.14 2.10 2.14 2.37 2.49 2.45 2.65 2.67 2.44 2.55 2.57 2.20 1.97 2.28 2.62 2.31 2.06 1.59 1.45 1.56 1.62 1.71 1.81 1.85 1.69 1.55 1.50 1.50
0.76 0.73 0.86 1.03 1.23 1.51 1.79 2.09 2.28 2.57 2.67 2.65 2.51 2.43 2.44 2.38 2.25 2.32 2.44 2.61 2.62 2.71 2.92 3.04 2.92 2.99 2.78 2.35 2.24 2.62 2.58 2.39 2.13 1.74 1.63 1.69 1.81 1.87 1.92 1.92 1.73 1.52 1.50
0.69 0.68 0.77 0.92 1.21 1.60 1.94 2.17 2.43 2.80 2.90 2.74 2.64 2.53 2.52 2.53 2.50 2.61 2.62 2.70 2.72 2.73 2.85 3.01 2.99 3.16 3.28 2.87 2.50 2.25 2.10 2.12 2.30 2.12 1.82 1.76 1.88 1.87 1.87 1.91 1.95 1.83 1.67
0.73 0.76 0.84 1.04 1.32 1.65 1.86 2.12 2.46 2.66 2.77 2.83 2.71 2.63 2.61 2.63 2.63 2.68 2.75 2.87 2.86 2.84 2.78 2.99 3.09 3.20 3.15 3.11 2.97 2.79 2.62 2.36 2.01 2.17 2.18 1.98 1.86 1.74 1.77 1.91 2.09 2.05 1.89
0.78 0.90 1.01 1.18 1.38 1.63 1.85 2.11 2.26 2.45 2.60 2.66 2.68 2.61 2.55 2.59 2.68 2.56 2.48 2.67 2.73 2.75 2.71 2.86 3.01 3.17 3.16 3.20 3.14 2.85 2.86 2.78 2.41 2.36 2.19 2.02 2.05 1.85 1.74 1.81 1.87 1.89 1.89

GEFSSE_prec_meanprecacc_336.txt.gz
Total_Precipitation_Accumulation
2.26 2.05 3.51 3.85 3.44 3.07 2.95 2.94 2.92 2.88 2.92 2.91 2.74 2.47 2.21 2.05 1.87 1.72 1.55 1.52 1.60 1.65 1.72 1.71 1.69 1.55 1.45 1.37 1.35 1.48 1.67 1.85 1.98 1.97 2.02 2.18 2.16 2.21 2.41 2.79 3.00 3.26 2.86
1.86 1.96 3.33 3.62 3.17 2.76 2.67 2.76 2.89 2.94 2.97 2.86 2.73 2.53 2.29 2.02 1.81 1.68 1.50 1.46 1.48 1.49 1.44 1.55 1.68 1.59 1.51 1.57 1.63 1.65 1.72 1.74 1.86 2.02 2.27 2.38 2.24 2.27 2.38 2.80 2.87 3.13 2.92
1.76 1.84 2.67 3.39 3.03 2.66 2.55 2.69 3.00 2.91 2.90 2.77 2.67 2.49 2.26 1.93 1.78 1.75 1.56 1.51 1.55 1.45 1.33 1.39 1.58 1.52 1.50 1.55 1.59 1.67 1.67 1.78 1.95 2.14 2.66 3.32 2.58 2.33 2.39 2.60 2.71 2.59 2.79
1.57 1.65 2.26 3.29 2.93 2.77 2.72 2.80 2.88 2.86 2.92 2.74 2.60 2.36 2.15 1.92 1.91 1.93 1.92 1.91 1.76 1.53 1.41 1.39 1.58 1.49 1.38 1.48 1.64 1.65 1.62 1.82 2.02 2.12 2.53 3.21 3.02 2.48 2.56 2.73 2.82 2.60 2.67
1.50 1.62 2.53 3.31 2.96 2.79 2.77 2.81 2.79 2.93 3.00 2.78 2.50 2.21 1.98 1.97 2.24 2.28 2.15 2.02 1.79 1.61 1.46 1.41 1.48 1.49 1.40 1.37 1.50 1.54 1.58 1.74 1.95 1.81 2.25 3.07 3.44 3.01 2.49 2.58 2.75 2.69 2.67
1.70 1.72 2.54 3.33 3.11 2.88 2.78 2.72 2.73 2.89 3.02 2.93 2.57 2.23 2.06 2.06 2.13 2.16 2.07 1.93 1.73 1.61 1.48 1.50 1.48 1.43 1.41 1.35 1.40 1.49 1.56 1.66 1.53 1.68 2.27 2.83 3.26 2.95 2.38 2.31 2.58 2.71 2.72
1.65 1.72 2.21 3.01 2.98 2.78 2.68 2.65 2.80 2.88 2.88 2.86 2.61 2.28 2.16 2.13 2.07 2.12 2.03 1.88 1.61 1.55 1.48 1.56 1.54 1.46 1.36 1.35 1.34 1.35 1.49 1.33 1.17 1.60 2.12 2.68 2.88 2.79 2.49 2.49 2.67 2.69 2.86
1.65 1.62 1.93 2.59 2.86 2.75 2.72 2.67 2.77 2.84 2.81 2.67 2.36 2.17 2.07 2.10 2.09 2.07 1.97 1.87 1.61 1.60 1.56 1.49 1.50 1.45 1.40 1.41 1.41 1.41 1.41 1.09 0.92 1.28 1.82 2.55 3.02 2.94 2.64 2.52 2.65 2.73 2.92
1.85 1.84 1.98 2.31 2.55 2.93 2.98 2.83 2.84 2.90 2.81 2.58 2.22 2.14 2.04 2.01 1.88 1.87 1.86 1.76 1.62 1.60 1.49 1.39 1.39 1.39 1.45 1.47 1.45 1.44 1.34 1.04 0.98 1.31 1.37 2.18 2.83 2.89 2.59 2.51 2.57 2.71 2.94
1.91 1.91 1.85 2.00 2.12 2.43 2.67 2.92 3.04 2.96 2.85 2.66 2.28 2.12 2.04 1.97 1.82 1.73 1.60 1.62 1.60 1.62 1.61 1.47 1.40 1.43 1.52 1.55 1.49 1.40 1.29 1.01 1.00 1.10 1.50 2.08 2.94 2.98 2.67 2.61 2.62 2.69 2.81
1.76 1.68 1.61 1.70 1.85 2.08 2.34 2.56 2.88 2.85 2.75 2.54 2.19 2.13 2.07 1.86 1.59 1.54 1.46 1.80 1.71 1.70 1.69 1.65 1.63 1.58 1.53 1.46 1.46 1.27 0.99 0.95 1.16 1.30 1.71 2.53 3.28 3.28 2.98 2.79 2.77 2.69 2.64
1.77 1.62 1.44 1.46 1.60 1.73 1.88 2.43 2.55 2.22 2.05 1.87 1.99 1.96 1.89 1.86 1.67 1.27 1.42 1.85 1.94 1.89 1.70 1.63 1.69 1.47 1.15 1.03 1.09 0.97 0.82 0.95 1.14 1.26 1.71 2.86 3.42 3.40 3.03 2.79 2.89 2.85 2.68
1.54 1.46 1.33 1.32 1.30 1.31 1.51 1.88 2.14 2.16 2.08 1.86 1.75 1.71 1.78 1.71 1.50 1.29 1.38 1.50 1.48 1.41 1.29 1.29 1.21 0.99 0.90 0.97 0.98 0.83 0.78 0.91 1.06 1.20 1.79 2.93 3.59 3.52 3.08 2.85 2.86 2.81 2.71
1.34 1.28 1.20 1.14 1.10 1.07 1.17 1.29 1.41 1.66 1.74 1.70 1.48 1.32 1.40 1.53 1.47 1.29 1.29 1.32 1.33 1.30 1.37 1.34 1.23 1.09 1.03 1.03 0.96 0.95 0.96 1.06 1.09 1.21 1.76 2.84 3.90 3.94 3.67 3.46 3.20 3.02 2.83
1.31 1.26 1.14 1.01 1.01 1.03 1.13 1.21 1.13 1.34 1.50 1.56 1.50 1.30 1.23 1.29 1.34 1.27 1.12 1.21 1.24 1.25 1.24 1.24 1.18 1.19 1.26 1.23 1.16 1.15 1.17 1.16 1.10 1.11 1.45 2.28 3.48 4.29 4.43 4.29 3.67 3.25 3.02
1.15 1.22 1.13 1.06 1.11 1.07 1.03 1.08 1.08 1.13 1.25 1.26 1.38 1.32 1.28 1.26 1.25 1.25 1.20 1.25 1.31 1.32 1.26 1.19 1.12 1.24 1.27 1.30 1.26 1.18 1.14 1.05 1.07 1.20 1.45 1.74 2.14 2.88 3.92 4.30 3.99 3.64 3.38
1.04 1.03 0.97 0.97 1.08 1.07 1.07 1.07 1.07 1.20 1.24 1.21 1.24 1.19 1.28 1.25 1.23 1.26 1.27 1.29 1.29 1.35 1.39 1.37 1.30 1.34 1.35 1.44 1.45 1.26 1.18 1.13 1.09 1.17 1.33 1.54 1.47 1.65 2.56 3.54 3.91 3.70 3.56
0.92 0.90 0.89 0.78 0.90 1.05 1.14 1.19 1.28 1.35 1.36 1.35 1.25 1.16 1.15 1.14 1.16 1.24 1.26 1.29 1.37 1.35 1.40 1.50 1.51 1.54 1.55 1.59 1.59 1.38 1.19 1.28 1.18 1.17 1.33 1.41 1.45 1.43 1.70 2.17 2.66 3.03 3.47
0.94 0.93 0.94 0.87 0.92 1.05 1.12 1.27 1.38 1.50 1.58 1.64 1.53 1.49 1.41 1.28 1.30 1.41 1.47 1.45 1.47 1.53 1.54 1.47 1.50 1.61 1.71 1.69 1.51 1.44 1.34 1.35 1.33 1.31 1.49 1.48 1.50 1.52 1.56 1.50 1.62 1.99 2.70
1.01 0.98 1.02 1.08 1.10 1.23 1.40 1.63 1.86 1.99 2.12 2.20 2.11 2.00 1.83 1.60 1.56 1.73 1.77 1.64 1.67 1.79 1.88 1.76 1.85 1.75 1.67 1.74 1.53 1.48 1.48 1.44 1.39 1.47 1.53 1.59 1.70 1.56 1.54 1.47 1.44 1.38 1.78
1.06 1.02 0.98 1.03 1.13 1.25 1.47 1.79 2.30 2.59 2.66 2.52 2.45 2.36 2.15 1.93 1.91 2.09 2.11 2.10 2.08 2.09 2.07 1.99 2.20 2.14 1.87 1.77 1.98 1.96 1.76 1.56 1.47 1.44 1.48 1.71 1.83 1.73 1.76 1.66 1.58 1.49 1.38
0.91 0.93 1.07 1.12 1.17 1.28 1.53 1.82 2.20 2.63 2.71 2.64 2.51 2.40 2.29 2.17 2.13 2.16 2.39 2.50 2.46 2.65 2.67 2.45 2.55 2.58 2.21 1.98 2.30 2.66 2.35 2.09 1.61 1.47 1.58 1.64 1.74 1.84 1.89 1.73 1.57 1.52 1.52
0.80 0.77 0.90 1.07 1.27 1.55 1.83 2.12 2.30 2.59 2.69 2.68 2.55 2.47 2.48 2.41 2.27 2.34 2.45 2.62 2.62 2.71 2.92 3.04 2.93 3.00 2.79 2.36 2.25 2.63 2.60 2.42 2.15 1.75 1.65 1.71 1.83 1.89 1.96 1.96 1.77 1.54 1.52
0.72 0.71 0.80 0.95 1.24 1.63 1.97 2.20 2.45 2.81 2.91 2.76 2.66 2.54 2.55 2.57 2.55 2.65 2.65 2.71 2.72 2.74 2.85 3.01 3.00 3.17 3.29 2.88 2.51 2.26 2.11 2.14 2.31 2.13 1.83 1.77 1.91 1.89 1.90 1.94 1.99 1.87 1.69
0.77 0.79 0.87 1.07 1.35 1.67 1.89 2.15 2.49 2.68 2.79 2.85 2.72 2.65 2.63 2.66 2.67 2.73 2.77 2.88 2.87 2.84 2.78 2.99 3.09 3.20 3.16 3.11 2.98 2.79 2.63 2.37 2.02 2.18 2.18 1.98 1.87 1.75 1.80 1.93 2.12 2.13 2.00
0.84 0.94 1.06 1.20 1.40 1.65 1.86 2.12 2.28 2.46 2.62 2.67 2.70 2.62 2.58 2.63 2.72 2.60 2.51 2.68 2.74 2.75 2.71 2.87 3.01 3.17 3.16 3.20 3.14 2.85 2.87 2.79 2.42 2.37 2.20 2.03 2.06 1.86 1.76 1.83 1.89 1.92 2.02

GEFSSE_prec_meanprecacc_342.txt.gz
Total_Precipitation_Accumulation
2.30 2.17 3.70 3.96 3.51 3.14 3.01 3.01 2.99 2.97 3.02 3.02 2.85 2.58 2.31 2.13 1.93 1.76 1.60 1.59 1.66 1.71 1.77 1.79 1.79 1.66 1.56 1.46 1.42 1.55 1.75 1.92 2.04 2.04 2.10 2.29 2.29 2.37 2.58 2.93 3.09 3.35 2.96
1.89 2.04 3.49 3.74 3.25 2.84 2.73 2.82 2.97 3.04 3.11 3.01 2.85 2.65 2.41 2.12 1.88 1.74 1.56 1.52 1.54 1.53 1.48 1.61 1.75 1.67 1.60 1.66 1.71 1.76 1.81 1.82 1.93 2.10 2.35 2.45 2.36 2.42 2.52 2.91 2.95 3.22 3.03
1.79 1.88 2.73 3.47 3.11 2.74 2.61 2.75 3.09 3.01 3.10 2.97 2.83 2.65 2.39 2.01 1.84 1.82 1.63 1.57 1.61 1.50 1.38 1.45 1.66 1.60 1.56 1.61 1.65 1.74 1.76 1.86 2.03 2.23 2.72 3.36 2.64 2.44 2.51 2.71 2.80 2.67 2.88
1.59 1.67 2.27 3.33 2.98 2.83 2.80 2.90 2.98 2.99 3.10 2.95 2.78 2.50 2.25 1.99 1.96 1.98 1.99 1.98 1.82 1.59 1.47 1.45 1.64 1.57 1.43 1.52 1.68 1.69 1.66 1.86 2.06 2.15 2.55 3.24 3.07 2.57 2.65 2.82 2.91 2.68 2.77
1.51 1.63 2.55 3.34 3.01 2.85 2.83 2.89 2.91 3.07 3.13 2.94 2.66 2.31 2.07 2.06 2.31 2.34 2.21 2.08 1.85 1.67 1.51 1.45 1.53 1.56 1.46 1.41 1.53 1.57 1.61 1.77 1.97 1.83 2.26 3.10 3.48 3.06 2.55 2.66 2.84 2.78 2.78
1.72 1.73 2.55 3.36 3.16 2.94 2.83 2.79 2.88 3.03 3.14 3.06 2.72 2.36 2.18 2.16 2.21 2.24 2.13 1.98 1.78 1.68 1.54 1.55 1.53 1.51 1.50 1.42 1.45 1.54 1.60 1.69 1.54 1.68 2.27 2.84 3.28 2.99 2.43 2.37 2.64 2.77 2.80
1.66 1.73 2.24 3.05 3.04 2.84 2.73 2.76 2.97 3.00 3.00 2.97 2.74 2.42 2.28 2.23 2.15 2.20 2.10 1.94 1.65 1.60 1.54 1.61 1.58 1.51 1.41 1.41 1.41 1.42 1.55 1.37 1.19 1.60 2.12 2.69 2.90 2.82 2.53 2.54 2.73 2.76 2.93
1.66 1.63 1.98 2.65 2.91 2.80 2.79 2.75 2.87 2.95 2.92 2.76 2.44 2.27 2.18 2.20 2.18 2.15 2.06 1.93 1.65 1.64 1.60 1.53 1.54 1.48 1.43 1.44 1.46 1.45 1.45 1.11 0.94 1.29 1.82 2.57 3.05 2.99 2.70 2.57 2.70 2.80 3.00
1.86 1.85 2.00 2.33 2.58 2.98 3.05 2.88 2.90 2.98 2.90 2.65 2.28 2.20 2.12 2.10 1.97 1.96 1.93 1.82 1.66 1.63 1.52 1.42 1.41 1.41 1.48 1.50 1.49 1.47 1.36 1.06 0.99 1.31 1.38 2.19 2.87 2.95 2.65 2.58 2.63 2.79 3.03
1.92 1.92 1.87 2.01 2.14 2.45 2.70 2.95 3.09 3.02 2.91 2.72 2.33 2.17 2.09 2.02 1.87 1.80 1.67 1.68 1.65 1.65 1.63 1.49 1.42 1.45 1.55 1.58 1.54 1.44 1.32 1.02 1.00 1.11 1.51 2.10 2.98 3.06 2.75 2.68 2.68 2.76 2.90
1.77 1.69 1.63 1.71 1.86 2.09 2.36 2.59 2.92 2.89 2.80 2.59 2.24 2.17 2.10 1.88 1.60 1.56 1.50 1.85 1.76 1.74 1.71 1.67 1.65 1.61 1.57 1.50 1.50 1.30 1.01 0.96 1.16 1.31 1.73 2.58 3.35 3.38 3.08 2.86 2.84 2.77 2.74
1.78 1.63 1.45 1.47 1.60 1.74 1.90 2.44 2.56 2.23 2.07 1.90 2.02 1.98 1.90 1.87 1.68 1.29 1.46 1.89 1.97 1.92 1.72 1.64 1.71 1.49 1.18 1.06 1.11 0.99 0.83 0.95 1.14 1.27 1.73 2.92 3.49 3.49 3.10 2.85 2.95 2.93 2.75
1.55 1.47 1.35 1.34 1.32 1.32 1.52 1.90 2.15 2.17 2.10 1.88 1.77 1.73 1.79 1.72 1.53 1.31 1.40 1.51 1.49 1.42 1.29 1.30 1.22 1.00 0.91 0.98 0.99 0.84 0.79 0.91 1.07 1.22 1.83 3.02 3.68 3.61 3.13 2.91 2.93 2.88 2.77
1.37 1.30 1.22 1.17 1.14 1.11 1.19 1.30 1.43 1.68 1.76 1.71 1.50 1.33 1.41 1.55 1.49 1.30 1.31 1.33 1.34 1.30 1.38 1.35 1.24 1.10 1.04 1.03 0.97 0.96 0.97 1.06 1.10 1.26 1.98 2.99 3.99 4.02 3.73 3.52 3.27 3.09 2.90
1.34 1.29 1.17 1.03 1.05 1.08 1.17 1.24 1.15 1.36 1.52 1.57 1.52 1.31 1.24 1.30 1.35 1.28 1.14 1.24 1.26 1.26 1.26 1.25 1.19 1.20 1.27 1.24 1.17 1.16 1.18 1.18 1.13 1.21 1.65 2.42 3.57 4.38 4.51 4.36 3.73 3.31 3.07
1.19 1.26 1.17 1.12 1.16 1.11 1.07 1.12 1.10 1.14 1.26 1.28 1.39 1.34 1.29 1.27 1.26 1.27 1.22 1.27 1.34 1.34 1.29 1.22 1.15 1.26 1.29 1.31 1.28 1.21 1.16 1.06 1.10 1.26 1.53 1.83 2.22 2.97 4.02 4.39 4.05 3.69 3.44
1.10 1.08 1.02 1.02 1.11 1.09 1.08 1.10 1.09 1.22 1.26 1.23 1.25 1.21 1.30 1.27 1.24 1.28 1.29 1.31 1.31 1.38 1.42 1.41 1.33 1.36 1.37 1.45 1.46 1.28 1.20 1.14 1.11 1.21 1.39 1.62 1.56 1.74 2.67 3.65 3.99 3.76 3.61
0.97 0.95 0.94 0.81 0.92 1.06 1.15 1.21 1.30 1.37 1.38 1.37 1.26 1.18 1.17 1.16 1.17 1.25 1.28 1.31 1.39 1.37 1.44 1.54 1.54 1.57 1.56 1.60 1.59 1.39 1.20 1.29 1.19 1.20 1.38 1.46 1.51 1.49 1.79 2.28 2.74 3.09 3.52
0.97 0.97 1.00 0.92 0.95 1.07 1.15 1.29 1.40 1.52 1.61 1.66 1.55 1.51 1.43 1.31 1.32 1.43 1.48 1.46 1.49 1.55 1.57 1.50 1.52 1.64 1.73 1.70 1.52 1.45 1.35 1.37 1.35 1.32 1.51 1.49 1.51 1.54 1.59 1.55 1.69 2.04 2.74
1.04 1.04 1.10 1.15 1.16 1.28 1.44 1.67 1.90 2.02 2.14 2.22 2.13 2.03 1.85 1.62 1.58 1.75 1.78 1.65 1.68 1.81 1.90 1.79 1.88 1.78 1.68 1.75 1.55 1.50 1.50 1.45 1.40 1.48 1.53 1.60 1.70 1.56 1.56 1.49 1.46 1.40 1.80
1.10 1.07 1.07 1.13 1.21 1.31 1.51 1.81 2.33 2.61 2.68 2.54 2.47 2.38 2.18 1.95 1.93 2.11 2.14 2.11 2.09 2.10 2.08 2.02 2.23 2.17 1.88 1.78 2.00 1.98 1.79 1.58 1.48 1.45 1.49 1.73 1.84 1.74 1.77 1.67 1.60 1.51 1.39
0.96 0.97 1.13 1.20 1.26 1.33 1.56 1.86 2.23 2.66 2.74 2.67 2.53 2.43 2.31 2.18 2.14 2.18 2.42 2.53 2.49 2.67 2.69 2.47 2.58 2.60 2.22 1.99 2.32 2.68 2.40 2.13 1.63 1.49 1.61 1.65 1.76 1.87 1.92 1.75 1.58 1.53 1.53
0.86 0.84 0.95 1.14 1.36 1.61 1.87 2.16 2.33 2.61 2.71 2.69 2.56 2.48 2.49 2.42 2.29 2.37 2.48 2.64 2.65 2.74 2.94 3.06 2.95 3.02 2.81 2.37 2.25 2.65 2.62 2.47 2.21 1.78 1.67 1.73 1.85 1.91 1.98 2.00 1.80 1.56 1.54
0.78 0.80 0.86 1.00 1.31 1.69 2.01 2.23 2.47 2.83 2.93 2.77 2.67 2.55 2.56 2.58 2.57 2.68 2.68 2.73 2.74 2.76 2.86 3.03 3.02 3.19 3.31 2.90 2.52 2.27 2.12 2.15 2.34 2.16 1.85 1.79 1.92 1.91 1.92 1.96 2.03 1.91 1.71
0.81 0.86 0.92 1.11 1.39 1.72 1.92 2.17 2.50 2.69 2.80 2.86 2.73 2.67 2.64 2.67 2.68 2.76 2.81 2.91 2.89 2.86 2.79 3.00 3.10 3.21 3.17 3.12 2.99 2.81 2.64 2.38 2.03 2.18 2.19 1.99 1.88 1.76 1.81 1.94 2.13 2.16 2.02
0.88 0.98 1.09 1.24 1.44 1.69 1.89 2.14 2.29 2.47 2.63 2.68 2.71 2.64 2.60 2.64 2.73 2.61 2.56 2.73 2.77 2.78 2.73 2.88 3.02 3.18 3.17 3.21 3.15 2.86 2.88 2.80 2.44 2.38 2.21 2.04 2.07 1.86 1.77 1.84 1.90 1.94 2.04

GEFSSE_prec_meanprecacc_348.txt.gz
Total_Precipitation_Accumulation
2.31 2.18 3.75 4.03 3.59 3.24 3.14 3.14 3.10 3.10 3.16 3.20 2.99 2.69 2.41 2.24 2.05 1.88 1.68 1.67 1.75 1.81 1.88 1.91 1.94 1.78 1.65 1.55 1.51 1.66 1.86 2.02 2.13 2.14 2.20 2.38 2.40 2.53 2.80 3.13 3.21 3.46 3.07
1.91 2.07 3.58 3.81 3.33 2.92 2.82 2.94 3.09 3.17 3.27 3.19 2.99 2.75 2.51 2.25 1.99 1.84 1.64 1.59 1.61 1.61 1.56 1.70 1.85 1.76 1.68 1.75 1.83 1.88 1.93 1.92 2.02 2.19 2.44 2.53 2.45 2.51 2.62 3.03 3.04 3.34 3.16
1.80 1.90 2.79 3.53 3.18 2.80 2.68 2.83 3.20 3.15 3.28 3.13 2.95 2.73 2.48 2.16 1.95 1.91 1.71 1.65 1.69 1.58 1.46 1.52 1.74 1.68 1.63 1.69 1.75 1.85 1.84 1.95 2.11 2.32 2.81 3.45 2.73 2.53 2.60 2.79 2.90 2.80 3.02
1.61 1.70 2.31 3.38 3.05 2.90 2.88 2.98 3.09 3.14 3.30 3.07 2.86 2.60 2.39 2.16 2.09 2.08 2.08 2.07 1.91 1.69 1.57 1.52 1.71 1.63 1.48 1.58 1.76 1.77 1.73 1.92 2.12 2.21 2.63 3.32 3.16 2.67 2.75 2.91 3.00 2.79 2.90
1.53 1.65 2.58 3.41 3.08 2.92 2.91 2.98 3.04 3.24 3.32 3.07 2.73 2.41 2.23 2.22 2.41 2.42 2.30 2.16 1.92 1.76 1.61 1.53 1.60 1.63 1.53 1.48 1.59 1.63 1.64 1.80 2.00 1.86 2.32 3.19 3.59 3.18 2.66 2.78 2.95 2.89 2.89
1.74 1.75 2.59 3.43 3.28 3.07 2.95 2.92 3.03 3.16 3.25 3.20 2.83 2.45 2.29 2.26 2.29 2.31 2.20 2.06 1.87 1.78 1.65 1.65 1.62 1.59 1.57 1.49 1.51 1.59 1.64 1.73 1.58 1.72 2.34 2.94 3.41 3.11 2.55 2.50 2.76 2.89 2.92
1.67 1.76 2.28 3.11 3.13 2.99 2.89 2.97 3.15 3.13 3.09 3.08 2.87 2.55 2.40 2.33 2.24 2.28 2.20 2.04 1.74 1.70 1.63 1.70 1.66 1.58 1.48 1.47 1.46 1.45 1.59 1.41 1.21 1.63 2.17 2.78 3.01 2.93 2.65 2.65 2.84 2.86 3.05
1.66 1.65 2.00 2.71 2.99 2.92 2.93 2.96 3.06 3.12 3.05 2.85 2.55 2.39 2.32 2.34 2.30 2.26 2.17 2.04 1.75 1.72 1.66 1.59 1.60 1.54 1.48 1.50 1.50 1.49 1.48 1.13 0.95 1.30 1.86 2.65 3.15 3.09 2.80 2.65 2.78 2.88 3.09
1.87 1.86 2.03 2.38 2.63 3.05 3.15 3.02 3.08 3.16 3.04 2.77 2.40 2.31 2.26 2.25 2.08 2.06 2.04 1.91 1.73 1.69 1.57 1.47 1.45 1.44 1.51 1.55 1.53 1.51 1.39 1.07 1.00 1.33 1.40 2.24 2.94 3.04 2.73 2.67 2.72 2.86 3.11
1.93 1.93 1.88 2.04 2.17 2.49 2.76 3.03 3.17 3.12 3.02 2.82 2.42 2.26 2.20 2.14 1.97 1.88 1.77 1.76 1.70 1.71 1.69 1.54 1.47 1.48 1.57 1.62 1.58 1.47 1.34 1.04 1.02 1.13 1.53 2.14 3.04 3.13 2.83 2.76 2.78 2.86 2.99
1.78 1.71 1.64 1.73 1.88 2.12 2.41 2.65 2.97 2.94 2.85 2.65 2.30 2.22 2.15 1.94 1.65 1.62 1.56 1.91 1.82 1.78 1.74 1.70 1.68 1.64 1.59 1.53 1.54 1.34 1.03 0.98 1.19 1.34 1.78 2.65 3.42 3.45 3.15 2.94 2.94 2.89 2.83
1.79 1.65 1.47 1.48 1.62 1.77 1.93 2.49 2.62 2.27 2.11 1.92 2.05 2.01 1.94 1.90 1.70 1.31 1.49 1.93 1.99 1.94 1.74 1.67 1.73 1.52 1.19 1.08 1.14 1.02 0.85 0.97 1.16 1.30 1.80 2.99 3.56 3.56 3.18 2.93 3.03 3.02 2.86
1.57 1.49 1.37 1.36 1.34 1.34 1.55 1.93 2.19 2.21 2.12 1.90 1.78 1.74 1.82 1.74 1.54 1.32 1.42 1.54 1.51 1.43 1.31 1.31 1.24 1.02 0.93 1.01 1.02 0.86 0.81 0.94 1.09 1.24 1.89 3.08 3.75 3.68 3.20 2.97 2.99 2.95 2.85
1.38 1.31 1.24 1.19 1.17 1.13 1.22 1.33 1.46 1.70 1.78 1.72 1.51 1.34 1.42 1.57 1.50 1.31 1.33 1.35 1.35 1.31 1.38 1.36 1.25 1.11 1.05 1.06 1.01 0.99 1.00 1.10 1.15 1.32 2.04 3.04 4.06 4.10 3.80 3.58 3.33 3.14 2.95
1.36 1.30 1.19 1.06 1.07 1.10 1.20 1.26 1.17 1.37 1.53 1.58 1.53 1.32 1.25 1.31 1.36 1.30 1.16 1.25 1.27 1.27 1.27 1.26 1.20 1.21 1.28 1.25 1.19 1.18 1.22 1.22 1.21 1.29 1.71 2.48 3.64 4.46 4.59 4.43 3.79 3.37 3.13
1.21 1.28 1.19 1.15 1.19 1.14 1.10 1.15 1.12 1.15 1.27 1.29 1.40 1.35 1.30 1.28 1.27 1.28 1.24 1.29 1.35 1.36 1.31 1.24 1.16 1.27 1.31 1.32 1.29 1.22 1.18 1.10 1.16 1.31 1.59 1.88 2.28 3.05 4.10 4.46 4.12 3.76 3.51
1.12 1.11 1.05 1.07 1.15 1.12 1.12 1.14 1.12 1.23 1.27 1.24 1.26 1.22 1.31 1.27 1.25 1.28 1.30 1.32 1.32 1.39 1.43 1.42 1.34 1.37 1.39 1.47 1.49 1.31 1.23 1.17 1.14 1.25 1.44 1.67 1.61 1.81 2.75 3.72 4.06 3.82 3.67
0.99 0.98 0.97 0.84 0.94 1.07 1.18 1.25 1.32 1.38 1.40 1.38 1.27 1.18 1.17 1.16 1.18 1.26 1.28 1.31 1.39 1.38 1.45 1.55 1.56 1.59 1.59 1.62 1.62 1.42 1.24 1.32 1.22 1.23 1.42 1.50 1.55 1.55 1.86 2.35 2.81 3.15 3.58
0.98 0.99 1.04 0.95 0.97 1.09 1.17 1.33 1.43 1.54 1.62 1.67 1.55 1.52 1.44 1.31 1.33 1.43 1.49 1.47 1.50 1.56 1.58 1.51 1.54 1.67 1.76 1.74 1.56 1.49 1.39 1.40 1.37 1.35 1.54 1.54 1.56 1.60 1.66 1.62 1.76 2.11 2.80
1.06 1.07 1.13 1.19 1.19 1.32 1.49 1.73 1.94 2.05 2.16 2.23 2.14 2.05 1.86 1.63 1.58 1.75 1.79 1.66 1.70 1.82 1.92 1.81 1.91 1.81 1.71 1.78 1.58 1.53 1.53 1.48 1.43 1.50 1.56 1.63 1.75 1.62 1.61 1.54 1.54 1.47 1.85
1.12 1.09 1.09 1.16 1.26 1.35 1.56 1.86 2.38 2.63 2.70 2.56 2.49 2.40 2.20 1.96 1.93 2.12 2.14 2.12 2.10 2.11 2.10 2.04 2.26 2.20 1.91 1.81 2.03 2.01 1.81 1.61 1.51 1.47 1.51 1.74 1.86 1.76 1.79 1.69 1.63 1.56 1.44
0.97 0.99 1.16 1.24 1.35 1.44 1.63 1.90 2.27 2.69 2.76 2.69 2.55 2.44 2.34 2.20 2.15 2.18 2.42 2.53 2.49 2.68 2.70 2.48 2.60 2.63 2.25 2.02 2.35 2.72 2.43 2.16 1.66 1.51 1.63 1.68 1.77 1.88 1.93 1.77 1.60 1.56 1.56
0.90 0.88 0.98 1.18 1.42 1.73 1.97 2.23 2.38 2.65 2.74 2.72 2.58 2.50 2.51 2.43 2.29 2.37 2.48 2.65 2.65 2.75 2.96 3.08 2.97 3.05 2.83 2.39 2.28 2.67 2.66 2.50 2.23 1.81 1.70 1.76 1.87 1.92 2.00 2.01 1.81 1.57 1.54
0.80 0.83 0.89 1.03 1.33 1.74 2.08 2.29 2.52 2.87 2.95 2.79 2.69 2.57 2.57 2.59 2.58 2.69 2.69 2.74 2.75 2.76 2.88 3.05 3.04 3.21 3.34 2.92 2.55 2.29 2.14 2.18 2.37 2.19 1.89 1.82 1.94 1.93 1.93 1.97 2.04 1.92 1.73
0.82 0.88 0.95 1.14 1.42 1.75 1.96 2.21 2.55 2.73 2.83 2.89 2.75 2.68 2.65 2.68 2.70 2.77 2.83 2.93 2.90 2.88 2.80 3.02 3.12 3.24 3.19 3.14 3.01 2.83 2.66 2.41 2.05 2.21 2.22 2.01 1.90 1.78 1.82 1.95 2.14 2.18 2.04
0.89 0.99 1.11 1.26 1.46 1.72 1.93 2.18 2.33 2.49 2.65 2.71 2.73 2.65 2.61 2.66 2.76 2.64 2.57 2.74 2.79 2.80 2.75 2.90 3.04 3.21 3.21 3.24 3.17 2.88 2.90 2.82 2.46 2.40 2.23 2.05 2.08 1.88 1.78 1.85 1.91 1.95 2.06

GEFSSE_prec_meanprecacc_354.txt.gz
Total_Precipitation_Accumulation
2.36 2.20 3.78 4.10 3.67 3.33 3.21 3.20 3.15 3.18 3.26 3.31 3.07 2.77 2.51 2.39 2.22 2.03 1.80 1.77 1.85 1.91 1.98 2.01 2.05 1.88 1.75 1.66 1.64 1.79 1.97 2.11 2.23 2.22 2.32 2.57 2.64 2.82 3.05 3.35 3.44 3.64 3.20
1.93 2.09 3.61 3.86 3.39 3.01 2.92 3.03 3.16 3.26 3.37 3.29 3.08 2.83 2.60 2.38 2.15 1.98 1.77 1.71 1.71 1.70 1.66 1.79 1.95 1.88 1.80 1.88 1.97 2.04 2.08 2.06 2.15 2.32 2.55 2.70 2.63 2.67 2.75 3.22 3.27 3.51 3.27
1.83 1.93 2.82 3.57 3.23 2.86 2.79 2.99 3.31 3.24 3.37 3.22 3.02 2.79 2.56 2.27 2.09 2.04 1.83 1.76 1.81 1.68 1.56 1.64 1.86 1.82 1.76 1.82 1.88 1.98 1.97 2.08 2.24 2.49 2.98 3.57 2.81 2.60 2.68 2.90 3.06 2.95 3.14
1.65 1.73 2.35 3.41 3.09 2.95 2.97 3.14 3.25 3.23 3.38 3.14 2.93 2.67 2.49 2.32 2.29 2.23 2.21 2.20 2.03 1.79 1.66 1.61 1.79 1.74 1.58 1.66 1.85 1.87 1.84 2.04 2.22 2.35 2.81 3.45 3.23 2.73 2.82 2.99 3.10 2.90 3.00
1.56 1.67 2.62 3.45 3.14 2.99 2.99 3.12 3.22 3.33 3.39 3.13 2.80 2.52 2.35 2.36 2.63 2.60 2.42 2.27 2.03 1.85 1.68 1.61 1.67 1.71 1.60 1.54 1.66 1.70 1.73 1.89 2.11 1.97 2.43 3.31 3.69 3.27 2.74 2.85 3.04 2.99 2.99
1.75 1.76 2.62 3.48 3.36 3.15 3.02 3.06 3.20 3.27 3.34 3.27 2.91 2.55 2.45 2.43 2.46 2.43 2.31 2.16 1.96 1.85 1.73 1.73 1.69 1.67 1.64 1.55 1.57 1.66 1.72 1.81 1.69 1.86 2.47 3.06 3.51 3.21 2.63 2.59 2.86 2.99 3.02
1.68 1.77 2.31 3.17 3.22 3.07 2.99 3.15 3.32 3.25 3.18 3.16 2.97 2.64 2.52 2.47 2.36 2.37 2.29 2.13 1.85 1.79 1.71 1.76 1.73 1.65 1.55 1.53 1.52 1.52 1.65 1.48 1.30 1.75 2.31 2.91 3.13 3.04 2.75 2.76 2.95 2.94 3.13
1.67 1.67 2.05 2.80 3.09 3.01 3.07 3.16 3.24 3.25 3.13 2.91 2.63 2.49 2.43 2.46 2.41 2.37 2.27 2.14 1.86 1.80 1.72 1.65 1.67 1.60 1.53 1.55 1.55 1.54 1.53 1.18 0.99 1.37 1.95 2.75 3.26 3.21 2.92 2.78 2.89 2.97 3.18
1.88 1.88 2.08 2.49 2.77 3.20 3.30 3.17 3.20 3.28 3.14 2.84 2.47 2.42 2.41 2.45 2.28 2.24 2.20 2.04 1.83 1.76 1.63 1.53 1.51 1.49 1.56 1.59 1.57 1.55 1.43 1.11 1.04 1.38 1.46 2.31 3.04 3.15 2.84 2.77 2.83 2.96 3.19
1.96 1.95 1.91 2.10 2.27 2.60 2.87 3.13 3.26 3.19 3.10 2.92 2.52 2.39 2.39 2.37 2.23 2.14 1.98 1.92 1.83 1.79 1.74 1.60 1.54 1.54 1.63 1.67 1.62 1.51 1.37 1.07 1.05 1.17 1.59 2.19 3.11 3.22 2.92 2.86 2.88 2.95 3.06
1.81 1.73 1.67 1.76 1.93 2.19 2.48 2.71 3.04 2.99 2.89 2.71 2.39 2.30 2.23 2.08 1.81 1.78 1.72 2.05 1.93 1.85 1.80 1.77 1.74 1.68 1.63 1.57 1.57 1.36 1.05 1.00 1.20 1.37 1.85 2.73 3.49 3.53 3.24 3.02 3.03 2.97 2.92
1.82 1.68 1.50 1.52 1.66 1.81 1.98 2.54 2.67 2.31 2.14 1.96 2.10 2.06 1.99 1.97 1.78 1.38 1.57 1.99 2.05 1.98 1.79 1.72 1.77 1.56 1.24 1.11 1.15 1.03 0.88 0.98 1.17 1.34 1.87 3.09 3.65 3.63 3.25 3.00 3.12 3.11 2.95
1.61 1.53 1.40 1.40 1.38 1.38 1.60 1.97 2.22 2.25 2.16 1.94 1.81 1.78 1.87 1.79 1.58 1.36 1.46 1.57 1.53 1.45 1.33 1.34 1.26 1.06 0.97 1.04 1.04 0.89 0.85 0.97 1.12 1.28 1.97 3.18 3.85 3.78 3.29 3.05 3.06 3.01 2.91
1.42 1.35 1.28 1.24 1.21 1.17 1.27 1.38 1.49 1.73 1.81 1.76 1.54 1.38 1.46 1.60 1.53 1.34 1.35 1.39 1.39 1.34 1.41 1.38 1.29 1.15 1.07 1.07 1.04 1.03 1.05 1.16 1.21 1.39 2.14 3.13 4.12 4.16 3.87 3.64 3.37 3.18 2.99
1.39 1.33 1.24 1.10 1.12 1.15 1.24 1.31 1.20 1.40 1.58 1.62 1.55 1.35 1.27 1.33 1.39 1.33 1.18 1.28 1.31 1.30 1.29 1.28 1.22 1.23 1.30 1.26 1.20 1.21 1.24 1.26 1.27 1.36 1.78 2.53 3.70 4.52 4.66 4.50 3.85 3.42 3.17
1.23 1.31 1.23 1.18 1.23 1.18 1.13 1.18 1.17 1.19 1.34 1.34 1.42 1.37 1.31 1.29 1.29 1.30 1.25 1.31 1.37 1.37 1.32 1.25 1.18 1.29 1.33 1.35 1.32 1.23 1.21 1.14 1.21 1.37 1.64 1.93 2.32 3.09 4.15 4.51 4.17 3.82 3.57
1.14 1.13 1.08 1.09 1.18 1.15 1.16 1.19 1.16 1.26 1.33 1.30 1.28 1.23 1.32 1.28 1.26 1.28 1.31 1.32 1.33 1.40 1.45 1.44 1.36 1.39 1.41 1.51 1.53 1.33 1.25 1.20 1.19 1.33 1.50 1.72 1.65 1.85 2.80 3.78 4.13 3.89 3.73
1.03 1.02 0.99 0.85 0.96 1.10 1.22 1.30 1.36 1.41 1.44 1.43 1.30 1.20 1.19 1.17 1.18 1.26 1.29 1.31 1.39 1.39 1.46 1.56 1.58 1.61 1.61 1.66 1.66 1.45 1.27 1.36 1.26 1.30 1.51 1.56 1.60 1.60 1.92 2.42 2.86 3.21 3.65
1.01 1.03 1.06 0.97 0.99 1.13 1.22 1.38 1.46 1.56 1.64 1.72 1.59 1.54 1.46 1.32 1.33 1.43 1.49 1.47 1.50 1.56 1.59 1.52 1.57 1.70 1.79 1.77 1.59 1.51 1.41 1.42 1.41 1.39 1.60 1.60 1.62 1.64 1.71 1.70 1.85 2.21 2.90
1.07 1.09 1.15 1.21 1.23 1.37 1.54 1.77 1.97 2.08 2.18 2.28 2.20 2.07 1.88 1.64 1.59 1.75 1.79 1.66 1.70 1.82 1.92 1.82 1.92 1.84 1.75 1.81 1.61 1.56 1.56 1.51 1.45 1.53 1.60 1.68 1.81 1.68 1.66 1.60 1.61 1.57 1.95
1.13 1.10 1.11 1.19 1.30 1.41 1.63 1.93 2.44 2.68 2.72 2.58 2.55 2.45 2.22 1.97 1.94 2.12 2.14 2.12 2.10 2.11 2.10 2.04 2.28 2.22 1.93 1.84 2.06 2.05 1.85 1.65 1.54 1.50 1.55 1.79 1.90 1.81 1.85 1.75 1.68 1.62 1.51
0.98 1.00 1.17 1.25 1.37 1.48 1.71 2.01 2.34 2.72 2.78 2.71 2.58 2.49 2.36 2.21 2.15 2.18 2.42 2.54 2.49 2.69 2.71 2.49 2.61 2.65 2.28 2.04 2.37 2.75 2.47 2.20 1.69 1.54 1.67 1.73 1.82 1.92 1.98 1.83 1.67 1.60 1.59
0.92 0.89 0.99 1.19 1.43 1.74 2.01 2.30 2.45 2.69 2.76 2.74 2.60 2.52 2.54 2.44 2.30 2.37 2.48 2.65 2.66 2.76 2.97 3.09 2.98 3.06 2.86 2.42 2.30 2.70 2.69 2.54 2.26 1.84 1.73 1.80 1.92 1.97 2.04 2.05 1.86 1.63 1.58
0.82 0.84 0.90 1.04 1.34 1.75 2.10 2.31 2.55 2.88 2.97 2.81 2.71 2.60 2.60 2.61 2.59 2.69 2.69 2.74 2.75 2.77 2.89 3.06 3.05 3.22 3.35 2.94 2.57 2.32 2.17 2.20 2.40 2.23 1.92 1.84 1.98 1.97 1.97 2.01 2.08 1.96 1.77
0.85 0.90 0.96 1.16 1.44 1.77 1.98 2.24 2.58 2.75 2.86 2.92 2.78 2.70 2.67 2.70 2.71 2.78 2.83 2.93 2.91 2.89 2.81 3.02 3.13 3.24 3.20 3.16 3.03 2.85 2.69 2.44 2.08 2.24 2.26 2.04 1.92 1.81 1.86 1.99 2.18 2.22 2.08
0.90 1.01 1.12 1.28 1.49 1.75 1.95 2.21 2.37 2.54 2.70 2.76 2.77 2.68 2.64 2.68 2.77 2.64 2.58 2.75 2.80 2.81 2.75 2.90 3.04 3.21 3.22 3.25 3.19 2.90 2.92 2.85 2.49 2.44 2.26 2.09 2.12 1.91 1.82 1.88 1.94 1.98 2.08

GEFSSE_prec_meanprecacc_360.txt.gz
Total_Precipitation_Accumulation
2.40 2.25 3.87 4.16 3.73 3.38 3.26 3.25 3.19 3.21 3.30 3.37 3.12 2.82 2.57 2.47 2.34 2.17 1.92 1.88 1.95 2.01 2.06 2.08 2.14 2.00 1.88 1.80 1.77 1.89 2.07 2.19 2.30 2.28 2.42 2.73 2.75 3.04 3.44 3.54 3.55 3.74 3.35
1.97 2.13 3.67 3.91 3.45 3.07 2.99 3.12 3.23 3.31 3.41 3.34 3.14 2.88 2.67 2.48 2.27 2.11 1.87 1.82 1.83 1.80 1.74 1.86 2.02 1.96 1.91 1.99 2.06 2.15 2.20 2.18 2.27 2.44 2.68 2.89 2.82 2.88 3.06 3.39 3.41 3.71 3.50
1.86 1.96 2.85 3.61 3.27 2.92 2.86 3.08 3.41 3.30 3.40 3.26 3.07 2.85 2.62 2.36 2.21 2.16 1.93 1.90 1.95 1.79 1.64 1.71 1.93 1.89 1.82 1.89 1.96 2.08 2.08 2.21 2.39 2.65 3.12 3.75 3.05 2.84 2.88 3.01 3.19 3.21 3.44
1.66 1.74 2.36 3.45 3.13 3.00 3.04 3.22 3.37 3.32 3.43 3.17 2.97 2.72 2.54 2.39 2.41 2.39 2.34 2.33 2.16 1.90 1.75 1.69 1.86 1.79 1.64 1.73 1.92 1.96 1.94 2.14 2.33 2.48 2.91 3.53 3.36 2.90 2.96 3.09 3.22 3.05 3.20
1.56 1.68 2.62 3.47 3.17 3.05 3.08 3.22 3.34 3.45 3.46 3.17 2.84 2.57 2.40 2.43 2.75 2.82 2.65 2.40 2.12 1.94 1.77 1.68 1.72 1.78 1.66 1.61 1.74 1.77 1.80 1.97 2.19 2.02 2.50 3.37 3.77 3.39 2.87 2.96 3.15 3.11 3.11
1.76 1.77 2.63 3.50 3.38 3.20 3.11 3.19 3.35 3.41 3.43 3.32 2.96 2.59 2.50 2.53 2.59 2.59 2.58 2.32 2.05 1.93 1.78 1.76 1.71 1.72 1.69 1.59 1.62 1.71 1.77 1.88 1.74 1.89 2.50 3.10 3.57 3.32 2.76 2.69 2.95 3.09 3.12
1.69 1.77 2.34 3.22 3.25 3.11 3.08 3.33 3.50 3.37 3.27 3.22 3.02 2.67 2.59 2.56 2.49 2.56 2.50 2.25 1.94 1.87 1.76 1.79 1.75 1.68 1.59 1.58 1.58 1.57 1.69 1.52 1.35 1.81 2.38 2.95 3.19 3.13 2.87 2.88 3.06 3.03 3.22
1.67 1.68 2.14 2.90 3.13 3.05 3.15 3.36 3.43 3.36 3.21 2.97 2.68 2.53 2.49 2.58 2.53 2.51 2.41 2.25 1.96 1.87 1.77 1.68 1.69 1.63 1.57 1.60 1.61 1.59 1.57 1.21 1.02 1.43 2.03 2.81 3.33 3.31 3.04 2.89 3.02 3.08 3.27
1.88 1.90 2.24 2.65 2.84 3.26 3.43 3.36 3.36 3.37 3.19 2.88 2.51 2.47 2.47 2.56 2.43 2.39 2.35 2.17 1.93 1.83 1.69 1.56 1.53 1.51 1.60 1.64 1.63 1.60 1.47 1.13 1.05 1.41 1.50 2.37 3.13 3.24 2.94 2.89 2.96 3.08 3.30
1.97 1.98 2.09 2.30 2.41 2.74 3.04 3.31 3.39 3.27 3.15 2.96 2.56 2.44 2.48 2.53 2.47 2.37 2.14 2.05 1.93 1.87 1.80 1.64 1.56 1.56 1.66 1.72 1.68 1.57 1.42 1.09 1.06 1.19 1.62 2.25 3.20 3.33 3.01 2.94 2.98 3.04 3.16
1.84 1.77 1.80 1.96 2.12 2.38 2.67 2.88 3.13 3.04 2.93 2.75 2.43 2.33 2.28 2.18 1.96 1.97 1.86 2.16 2.02 1.93 1.86 1.82 1.78 1.72 1.67 1.61 1.61 1.40 1.09 1.02 1.21 1.38 1.88 2.80 3.59 3.65 3.34 3.09 3.09 3.05 3.01
1.85 1.72 1.60 1.69 1.87 2.02 2.16 2.64 2.72 2.34 2.16 1.97 2.11 2.08 2.02 2.02 1.86 1.47 1.66 2.08 2.12 2.05 1.85 1.78 1.82 1.59 1.27 1.14 1.18 1.06 0.90 1.00 1.19 1.37 1.93 3.19 3.74 3.74 3.34 3.08 3.19 3.19 3.03
1.63 1.56 1.46 1.49 1.49 1.51 1.72 2.04 2.27 2.27 2.18 1.95 1.82 1.79 1.88 1.82 1.63 1.40 1.50 1.61 1.56 1.47 1.35 1.37 1.28 1.07 0.99 1.06 1.06 0.90 0.86 0.99 1.15 1.33 2.05 3.30 3.96 3.87 3.37 3.13 3.13 3.07 2.96
1.44 1.36 1.30 1.27 1.27 1.24 1.34 1.44 1.54 1.77 1.83 1.78 1.55 1.38 1.47 1.62 1.55 1.35 1.37 1.41 1.41 1.36 1.42 1.40 1.30 1.16 1.08 1.08 1.05 1.05 1.07 1.18 1.24 1.43 2.21 3.25 4.23 4.25 3.95 3.70 3.42 3.22 3.03
1.41 1.35 1.26 1.13 1.15 1.18 1.26 1.35 1.27 1.47 1.61 1.63 1.56 1.36 1.28 1.33 1.40 1.33 1.18 1.29 1.32 1.31 1.30 1.30 1.24 1.25 1.31 1.27 1.21 1.22 1.26 1.27 1.29 1.38 1.83 2.61 3.80 4.59 4.72 4.56 3.92 3.48 3.23
1.25 1.32 1.25 1.20 1.25 1.20 1.15 1.21 1.21 1.26 1.40 1.37 1.43 1.38 1.32 1.29 1.29 1.30 1.25 1.31 1.37 1.38 1.33 1.26 1.19 1.31 1.35 1.37 1.33 1.25 1.21 1.14 1.22 1.39 1.69 1.98 2.38 3.16 4.21 4.57 4.24 3.90 3.65
1.15 1.15 1.10 1.12 1.21 1.18 1.19 1.21 1.18 1.29 1.36 1.34 1.32 1.25 1.33 1.29 1.26 1.29 1.31 1.32 1.33 1.41 1.45 1.44 1.37 1.40 1.42 1.52 1.54 1.34 1.26 1.20 1.20 1.34 1.54 1.76 1.68 1.92 2.87 3.83 4.19 3.97 3.82
1.04 1.04 1.01 0.87 1.00 1.14 1.24 1.32 1.37 1.43 1.45 1.45 1.33 1.22 1.20 1.19 1.20 1.27 1.29 1.32 1.39 1.39 1.46 1.56 1.58 1.61 1.61 1.67 1.67 1.46 1.29 1.38 1.27 1.31 1.54 1.61 1.65 1.66 1.99 2.48 2.92 3.28 3.73
1.04 1.05 1.09 0.99 1.02 1.16 1.25 1.41 1.48 1.59 1.67 1.73 1.60 1.57 1.48 1.35 1.36 1.45 1.50 1.48 1.50 1.56 1.59 1.52 1.57 1.70 1.80 1.78 1.60 1.52 1.43 1.44 1.43 1.41 1.63 1.66 1.69 1.70 1.78 1.77 1.92 2.29 2.97
1.11 1.12 1.17 1.23 1.25 1.41 1.59 1.82 2.03 2.13 2.23 2.31 2.23 2.11 1.93 1.68 1.62 1.78 1.81 1.67 1.70 1.83 1.92 1.82 1.93 1.84 1.75 1.82 1.62 1.57 1.57 1.52 1.48 1.56 1.64 1.74 1.89 1.77 1.75 1.67 1.69 1.66 2.04
1.16 1.13 1.13 1.21 1.32 1.45 1.67 1.99 2.50 2.75 2.78 2.63 2.59 2.50 2.27 2.02 1.97 2.14 2.15 2.13 2.11 2.13 2.11 2.05 2.29 2.22 1.94 1.85 2.07 2.06 1.86 1.67 1.57 1.54 1.58 1.84 1.96 1.90 1.97 1.85 1.75 1.67 1.57
1.02 1.04 1.20 1.28 1.39 1.51 1.74 2.04 2.40 2.81 2.88 2.78 2.62 2.53 2.42 2.26 2.20 2.22 2.44 2.55 2.50 2.70 2.72 2.50 2.63 2.66 2.28 2.05 2.39 2.77 2.49 2.23 1.72 1.57 1.70 1.76 1.87 1.99 2.08 1.94 1.76 1.66 1.63
0.97 0.93 1.03 1.21 1.45 1.76 2.02 2.32 2.49 2.75 2.85 2.82 2.65 2.56 2.58 2.48 2.34 2.40 2.50 2.67 2.67 2.77 2.98 3.11 3.01 3.09 2.87 2.43 2.31 2.72 2.71 2.56 2.30 1.87 1.77 1.84 1.97 2.03 2.11 2.13 1.93 1.70 1.64
0.88 0.88 0.94 1.07 1.36 1.77 2.11 2.32 2.56 2.91 3.01 2.86 2.76 2.63 2.63 2.64 2.61 2.71 2.70 2.76 2.77 2.79 2.90 3.07 3.07 3.24 3.36 2.95 2.58 2.33 2.18 2.21 2.42 2.26 1.96 1.89 2.03 2.01 2.00 2.05 2.13 2.02 1.82
0.89 0.94 0.99 1.19 1.48 1.80 2.00 2.25 2.59 2.77 2.87 2.95 2.82 2.73 2.69 2.72 2.73 2.80 2.85 2.95 2.92 2.89 2.82 3.02 3.13 3.25 3.21 3.17 3.04 2.86 2.69 2.45 2.09 2.26 2.29 2.10 1.98 1.86 1.90 2.02 2.21 2.25 2.13
0.92 1.04 1.16 1.33 1.54 1.81 1.99 2.25 2.39 2.57 2.73 2.79 2.81 2.72 2.68 2.72 2.80 2.67 2.60 2.77 2.81 2.82 2.76 2.91 3.05 3.22 3.23 3.26 3.20 2.91 2.93 2.86 2.50 2.45 2.28 2.12 2.17 1.98 1.87 1.93 1.99 2.02 2.12